Previsão horária em Ababuj

Hoje, 30 Setembro, Quarta-feira

Tempo Temperatura Precipitação Vento Pressão Humidade
00:00 +11°C° 0 mm 1 m/s 648 mmHg 59%
01:00 +11°C° 0 mm 1 m/s 647 mmHg 59%
02:00 +11°C° 0 mm 1 m/s 647 mmHg 58%
03:00 +11°C° 0 mm 1 m/s 646 mmHg 58%
04:00 +11°C° 0 mm 1 m/s 646 mmHg 57%
05:00 +10°C° 0 mm 1 m/s 646 mmHg 57%
06:00 +10°C° 0 mm 1 m/s 646 mmHg 56%
07:00 +13°C° 0 mm 1 m/s 647 mmHg 48%
08:00 +15°C° 0 mm 1 m/s 648 mmHg 39%
09:00 +19°C° 0 mm 1 m/s 649 mmHg 30%
10:00 +20°C° 0 mm 1 m/s 649 mmHg 27%
11:00 +20°C° 0 mm 2 m/s 649 mmHg 24%
12:00 +21°C° 0 mm 2 m/s 649 mmHg 21%
13:00 +23°C° 0 mm 2 m/s 649 mmHg 21%
14:00 +23°C° 0 mm 2 m/s 649 mmHg 21%
15:00 +24°C° 0 mm 2 m/s 648 mmHg 22%
16:00 +21°C° 0 mm 2 m/s 647 mmHg 28%
17:00 +18°C° 0 mm 2 m/s 647 mmHg 35%
18:00 +16°C° 0 mm 2 m/s 646 mmHg 41%
19:00 +15°C° 0 mm 2 m/s 646 mmHg 41%
20:00 +15°C° 0 mm 2 m/s 646 mmHg 42%
21:00 +14°C° 0 mm 2 m/s 646 mmHg 42%
22:00 +13°C° 0 mm 2 m/s 645 mmHg 42%
23:00 +13°C° 0 mm 2 m/s 645 mmHg 42%

Amanhã, 1 Outubro, Quinta-feira

Tempo Temperatura Precipitação Vento Pressão Humidade
00:00 +13°C° 0 mm 2 m/s 645 mmHg 42%
01:00 +12°C° 0 mm 2 m/s 644 mmHg 43%
02:00 +12°C° 0 mm 2 m/s 644 mmHg 44%
03:00 +12°C° 0 mm 2 m/s 643 mmHg 44%
04:00 +10°C° 0 mm 2 m/s 643 mmHg 45%
05:00 +10°C° 0 mm 2 m/s 643 mmHg 45%
06:00 +10°C° 0 mm 2 m/s 643 mmHg 46%
07:00 +13°C° 0 mm 2 m/s 644 mmHg 42%
08:00 +14°C° 0 mm 3 m/s 644 mmHg 38%
09:00 +17°C° 0 mm 4 m/s 645 mmHg 34%
10:00 +18°C° 0 mm 4 m/s 645 mmHg 32%
11:00 +20°C° 0 mm 4 m/s 645 mmHg 31%
12:00 +21°C° 0 mm 4 m/s 645 mmHg 30%
13:00 +21°C° 0 mm 5 m/s 645 mmHg 29%
14:00 +21°C° 0 mm 5 m/s 644 mmHg 29%
15:00 +22°C° 0 mm 6 m/s 644 mmHg 29%
16:00 +20°C° 0 mm 5 m/s 643 mmHg 35%
17:00 +18°C° 0 mm 4 m/s 643 mmHg 40%
18:00 +16°C° 0 mm 3 m/s 642 mmHg 46%
19:00 +14°C° 0 mm 3 m/s 642 mmHg 50%
20:00 +13°C° 0 mm 3 m/s 641 mmHg 54%
21:00 +13°C° 0 mm 3 m/s 641 mmHg 58%
22:00 +12°C° 0 mm 3 m/s 640 mmHg 62%
23:00 +12°C° 0 mm 4 m/s 640 mmHg 66%

Depois de amanhã, 2 Outubro, Sexta-feira

Tempo Temperatura Precipitação Vento Pressão Humidade
00:00 +10°C° 0 mm 5 m/s 639 mmHg 70%
01:00 +10°C° 0 mm 6 m/s 638 mmHg 71%
02:00 +10°C° 0 mm 7 m/s 637 mmHg 73%
03:00 +9°C° 0 mm 8 m/s 637 mmHg 74%
04:00 +8°C° 0 mm 9 m/s 636 mmHg 74%
05:00 +8°C° 0 mm 9 m/s 636 mmHg 74%
06:00 +8°C° 0 mm 10 m/s 635 mmHg 73%
07:00 +8°C° 0 mm 10 m/s 635 mmHg 71%
08:00 +8°C° 0 mm 11 m/s 634 mmHg 70%
09:00 +9°C° 0 mm 12 m/s 634 mmHg 68%
10:00 +9°C° 0.1 mm 12 m/s 634 mmHg 69%
11:00 +9°C° 0.1 mm 12 m/s 634 mmHg 70%
12:00 +9°C° 0.1 mm 13 m/s 633 mmHg 71%
13:00 +7°C° 2.2 mm 11 m/s 633 mmHg 76%
14:00 +3°C° 2.2 mm 10 m/s 632 mmHg 81%
15:00 +1°C° 2.2 mm 8 m/s 631 mmHg 87%
16:00 +1°C° 0.1 mm 9 m/s 632 mmHg 77%
17:00 +2°C° 0.1 mm 9 m/s 633 mmHg 67%
18:00 +2°C° 0.1 mm 9 m/s 633 mmHg 57%
19:00 +2°C° 0 mm 8 m/s 634 mmHg 61%
20:00 +2°C° 0 mm 7 m/s 634 mmHg 65%
21:00 +1°C° 0 mm 6 m/s 635 mmHg 69%
22:00 +1°C° 0 mm 6 m/s 635 mmHg 71%
23:00 -1°C° 0 mm 6 m/s 635 mmHg 73%

3 Outubro, Sábado

Tempo Temperatura Precipitação Vento Pressão Humidade
00:00 -1°C° 0 mm 7 m/s 634 mmHg 75%
01:00 -1°C° 0 mm 7 m/s 635 mmHg 75%
02:00 -1°C° 0 mm 7 m/s 635 mmHg 76%
03:00 -2°C° 0 mm 7 m/s 635 mmHg 76%
04:00 -2°C° 0 mm 7 m/s 635 mmHg 78%
05:00 -2°C° 0 mm 7 m/s 636 mmHg 79%
06:00 -2°C° 0 mm 6 m/s 636 mmHg 81%
07:00 -1°C° 0 mm 7 m/s 637 mmHg 73%
08:00 +2°C° 0 mm 7 m/s 638 mmHg 66%
09:00 +3°C° 0 mm 7 m/s 639 mmHg 58%
10:00 +4°C° 0 mm 7 m/s 639 mmHg 53%
11:00 +6°C° 0 mm 8 m/s 640 mmHg 48%
12:00 +7°C° 0 mm 8 m/s 640 mmHg 43%
13:00 +7°C° 0 mm 8 m/s 640 mmHg 43%
14:00 +7°C° 0 mm 8 m/s 640 mmHg 43%
15:00 +7°C° 0 mm 8 m/s 640 mmHg 44%
16:00 +6°C° 0 mm 7 m/s 639 mmHg 48%
17:00 +5°C° 0 mm 6 m/s 639 mmHg 52%
18:00 +5°C° 0 mm 5 m/s 639 mmHg 56%
19:00 +5°C° 0 mm 5 m/s 639 mmHg 60%
20:00 +3°C° 0 mm 5 m/s 639 mmHg 63%
21:00 +2°C° 0 mm 5 m/s 639 mmHg 66%
22:00 +2°C° 0 mm 5 m/s 639 mmHg 67%
23:00 +2°C° 0 mm 5 m/s 639 mmHg 68%

4 Outubro, Domingo

Tempo Temperatura Precipitação Vento Pressão Humidade
00:00 +2°C° 0 mm 5 m/s 639 mmHg 69%
01:00 +1°C° 0 mm 5 m/s 638 mmHg 72%
02:00 +1°C° 0 mm 6 m/s 638 mmHg 75%
03:00 0°C° 0 mm 7 m/s 637 mmHg 79%
04:00 +2°C° 0 mm 7 m/s 637 mmHg 78%
05:00 +2°C° 0 mm 7 m/s 638 mmHg 78%
06:00 +2°C° 0 mm 7 m/s 638 mmHg 78%
07:00 +2°C° 0.2 mm 8 m/s 638 mmHg 76%
08:00 +3°C° 0.2 mm 9 m/s 638 mmHg 75%
09:00 +4°C° 0.2 mm 11 m/s 639 mmHg 73%
10:00 +6°C° 0.1 mm 11 m/s 639 mmHg 65%
11:00 +8°C° 0.1 mm 11 m/s 639 mmHg 56%
12:00 +9°C° 0.1 mm 11 m/s 640 mmHg 48%
13:00 +9°C° 0 mm 11 m/s 640 mmHg 46%
14:00 +9°C° 0 mm 11 m/s 640 mmHg 43%
15:00 +9°C° 0 mm 11 m/s 639 mmHg 40%
16:00 +8°C° 0 mm 10 m/s 639 mmHg 45%
17:00 +7°C° 0 mm 9 m/s 639 mmHg 49%
18:00 +6°C° 0 mm 8 m/s 639 mmHg 54%
19:00 +5°C° 0 mm 8 m/s 639 mmHg 60%
20:00 +4°C° 0 mm 7 m/s 640 mmHg 67%
21:00 +4°C° 0 mm 7 m/s 640 mmHg 73%
22:00 +4°C° 0 mm 7 m/s 640 mmHg 75%
23:00 +3°C° 0 mm 7 m/s 640 mmHg 77%

5 Outubro, Segunda-feira

Tempo Temperatura Precipitação Vento Pressão Humidade
00:00 +3°C° 0 mm 7 m/s 640 mmHg 79%
01:00 +3°C° 0 mm 7 m/s 640 mmHg 80%
02:00 +2°C° 0 mm 7 m/s 640 mmHg 81%
03:00 +2°C° 0 mm 7 m/s 640 mmHg 82%
04:00 +2°C° 0 mm 7 m/s 640 mmHg 84%
05:00 0°C° 0 mm 7 m/s 640 mmHg 85%
06:00 +1°C° 0 mm 6 m/s 640 mmHg 86%
07:00 +2°C° 0 mm 7 m/s 641 mmHg 78%
08:00 +3°C° 0 mm 7 m/s 641 mmHg 71%
09:00 +5°C° 0 mm 8 m/s 642 mmHg 63%
10:00 +6°C° 0 mm 8 m/s 642 mmHg 58%
11:00 +7°C° 0 mm 8 m/s 642 mmHg 53%
12:00 +9°C° 0 mm 8 m/s 643 mmHg 48%
13:00 +8°C° 0 mm 9 m/s 643 mmHg 47%
14:00 +8°C° 0 mm 9 m/s 642 mmHg 46%
15:00 +8°C° 0 mm 9 m/s 642 mmHg 45%
16:00 +7°C° 0 mm 8 m/s 642 mmHg 49%
17:00 +6°C° 0 mm 7 m/s 642 mmHg 53%
18:00 +5°C° 0 mm 6 m/s 642 mmHg 58%
19:00 +5°C° 0 mm 5 m/s 642 mmHg 61%
20:00 +5°C° 0 mm 5 m/s 643 mmHg 65%
21:00 +3°C° 0 mm 5 m/s 643 mmHg 69%
22:00 +3°C° 0 mm 5 m/s 643 mmHg 72%
23:00 +3°C° 0 mm 5 m/s 643 mmHg 74%
Mostrar mais